OBJECT L, 61237

Orbit data source: Space-Track

You're viewing an Uncataloged Satellite

Recently launched and/or uncataloged satellites may have evolving metadata. Metadata may include but not limited to: Owner, Maufacturer, Bus, Motor, and Mission.

OBJECT L, 61237 is a satellite owned by Changzheng H. (CN) in SSO that was launched on Tue, 24 Sep 2024 UTC launched from the Yellow Sea Launch Area, China (YSLA). Unknown objects in Earth's orbit typically refer to objects detected orbiting the Earth but have not yet been identified or cataloged. These objects could be anything from previously untracked satellites, spent rocket stages, debris from satellite collisions, or even natural meteoroids temporarily captured by Earth's gravity.

Loading next visibility...
OBJECT L details
Identifier
61237, 2024-173L
Orbit
SSO
Last TLE update18 hours ago
Origin
Flag of CNChangzheng H. (CN / PRC)
ManufacturerChangzheng H.
MissionSpacecraft
Bus & MotorUnknown
Mass500 kg wet, 500 kg dry
Launch date (UTC)
2024-09-24 (3 months ago)
Launch vehicleUnknown
Launch site
Yellow Sea Launch Area, China (YSLA)
Object typeUnknown
Shape & HBRUnknown
Radar Cross SectionLarge (>1 m²)

Expand to show TLE details & history

TLE from 18 hours ago
0 OBJECT L
1 61237U 24173L   24355.76063977  .00033115  00000-0  66026-3 0  9996
2 61237  97.6681  72.8440 0075868   2.1451 358.0106 15.43657608 13529
Epoch: 2024-12-20T18:15Z
Definitive object data (Epoch: 2024-12-20T18:15:19.276Z)
Latitude-0.00004°
Longitude69.19217°
Altitude386.768 km
Speed7.707 km/s
True Right ascension04h 51m 22s
True Declination0° 00' 00"
Sunlit
Object was in full shadow at TLE epoch
Visualization TLE readout
Latitude77.75825°
Longitude-71.93324°
Altitude457.038 km
Speed7.64 km/s
Apparent Right ascension22h 05m 40s
Apparent Declination23° 34' 33"
Sunlit
Object is in daylight
Visualization observer readout
Local Sidereal Time10:49:22
Azimuth11.115° NNE
Elevation-25.695°
Doppler factor1
Orbital elements
Apogee altitude483.94 km
Perigee altitude380.602 km
Semi-major axis6,810.408 km
Eccentricity0.0075868
Inclination97.6681°
RAAN72.844°
Arg. of periapsis2.1451°
True anomaly357.98013°
Mean anomaly358.0106°
Eccentric anomaly357.99539°
Mean motion3.86174 °/min
BSTAR0.00066026
Orbital period93.22 mins
Loading maneuver chart data...
Loading historical data...
Loading historical data...
Loading historical data...
Loading historical data...
Loading historical data...
Loading historical data...
Loading historical data...

OBJECT L Visibility forecast

Observer location: undefined°, undefined

Span
Click to sort rows by Start time (UTC) header in descending order
Start Az.
Max El. time (UTC)
Max El. Az.
Max El.
End time (UTC)
End Az.
6 mins2024-12-21 18:08:40.750Z17.964° NNE2024-12-21 18:11:40.750Z118.308° SE43.329°2024-12-21 18:14:40.750Z185.855° SSW
|